WetterOnline ( https://www.wetteronline.at )

Wetter aktuell Finsterwalde

Aktuelles Wetter: Kirchhain (100m)

6-stündlich | Neueste Meldungen
Ortszeit Temperatur Wetter
Mo, 20.01. 1:00 2.7° C bedeckt
So, 19.01. 19:00 2.8° C bewölkt
So, 19.01. 13:00 4.5° C bedeckt
So, 19.01. 7:00 2.6° C bedeckt
So, 19.01. 1:00 0.3° C leicht bewölkt
Sa, 18.01. 19:00 3.9° C bedeckt
Sa, 18.01. 13:00 6.6° C bedeckt
Sa, 18.01. 7:00 6.3° C bedeckt
Ortszeit Temperatur Wetter
Mo, 20.01. 6:00 2.3° C bedeckt
Mo, 20.01. 5:50 2.3° C bedeckt
Mo, 20.01. 5:40 2.4° C bedeckt
Mo, 20.01. 5:30 2.3° C bedeckt
Mo, 20.01. 5:20 2.3° C bedeckt
Mo, 20.01. 5:10 2.4° C bedeckt
Mo, 20.01. 5:00 2.5° C bedeckt
Mo, 20.01. 4:30 2.5° C bedeckt
Mo, 20.01. 4:00 2.5° C bedeckt
Mo, 20.01. 3:30 2.7° C bedeckt
Mo, 20.01. 3:00 2.6° C bedeckt
Ortszeit Relative Feuchte Sichtweite
Mo, 20.01. 1:00 93% 10 km
So, 19.01. 19:00 91% 11 km
So, 19.01. 13:00 85% 13 km
So, 19.01. 7:00 86% 14 km
So, 19.01. 1:00 92% 18 km
Sa, 18.01. 19:00 78% 23 km
Sa, 18.01. 13:00 69% 40 km
Sa, 18.01. 7:00 82% 18 km
Ortszeit Relative Feuchte Sichtweite
Mo, 20.01. 6:00 92% 13 km
Mo, 20.01. 5:50 92% -
Mo, 20.01. 5:40 92% -
Mo, 20.01. 5:30 94% 9 km
Mo, 20.01. 5:20 94% -
Mo, 20.01. 5:10 93% -
Mo, 20.01. 5:00 92% 14 km
Mo, 20.01. 4:30 92% 12 km
Mo, 20.01. 4:00 94% 9 km
Mo, 20.01. 3:30 93% 10 km
Mo, 20.01. 3:00 92% 11 km
Ortszeit Niederschlagsmenge Niederschlagsart
Mo, 20.01. 1:00 0.0 l/m2 in 6 Std. -
So, 19.01. 19:00 0.1 l/m2 in 12 Std. -
So, 19.01. 13:00 0.1 l/m2 in 6 Std. Regen
So, 19.01. 7:00 0.0 l/m2 in 12 Std. -
So, 19.01. 1:00 0.0 l/m2 in 6 Std. -
Sa, 18.01. 19:00 0.0 l/m2 in 12 Std. -
Sa, 18.01. 13:00 0.0 l/m2 in 6 Std. -
Sa, 18.01. 7:00 0.1 l/m2 in 12 Std. Regen
Ortszeit Niederschlagsmenge Niederschlagsart
Mo, 20.01. 6:00 0.0 l/m2 in 1 Std. -
Mo, 20.01. 5:50 keine Meldung -
Mo, 20.01. 5:40 keine Meldung -
Mo, 20.01. 5:30 0.0 l/m2 in 1 Std. -
Mo, 20.01. 5:20 keine Meldung -
Mo, 20.01. 5:10 keine Meldung -
Mo, 20.01. 5:00 0.0 l/m2 in 1 Std. -
Mo, 20.01. 4:30 0.0 l/m2 in 1 Std. -
Mo, 20.01. 4:00 0.0 l/m2 in 1 Std. -
Mo, 20.01. 3:30 0.0 l/m2 in 1 Std. -
Mo, 20.01. 3:00 0.0 l/m2 in 1 Std. -
Ortszeit Stärke Spitze Richtung
km/h Bft. km/h Grad Sektor
Mo, 20.01. 1:00 6 1 13 280° W
So, 19.01. 19:00 9 2 20 280° W
So, 19.01. 13:00 7 2 22 290° W
So, 19.01. 7:00 9 2 19 260° W
So, 19.01. 1:00 9 2 15 190° S
Sa, 18.01. 19:00 7 2 25 190° S
Sa, 18.01. 13:00 13 3 26 220° SW
Sa, 18.01. 7:00 11 2 25 240° SW
Ortszeit Stärke Spitze Richtung
km/h Bft. km/h Grad Sektor
Mo, 20.01. 6:00 2 1 6 320° NW
Mo, 20.01. 5:50 2 1 - 320° NW
Mo, 20.01. 5:40 2 1 - 340° N
Mo, 20.01. 5:30 0 0 4 - -
Mo, 20.01. 5:20 2 1 - 270° W
Mo, 20.01. 5:10 4 1 - 270° W
Mo, 20.01. 5:00 4 1 7 270° W
Mo, 20.01. 4:30 4 1 7 210° SW
Mo, 20.01. 4:00 4 1 7 220° SW
Mo, 20.01. 3:30 6 1 6 280° W
Mo, 20.01. 3:00 4 1 7 290° W
Ortszeit Untergrenze Bedeckung Gattung
total tief tief mittel hoch
Mo, 20.01. 1:00 990 m 8/8 8/8 - - -
So, 19.01. 19:00 660 m 7/8 7/8 - - -
So, 19.01. 13:00 300 m 8/8 8/8 - - -
So, 19.01. 7:00 360 m 8/8 8/8 - - -
So, 19.01. 1:00 690 m 1/8 4/8 - - -
Sa, 18.01. 19:00 1800 m 8/8 8/8 - - -
Sa, 18.01. 13:00 3600 m 8/8 8/8 - - -
Sa, 18.01. 7:00 1020 m 8/8 8/8 - - -
Ortszeit Bedeckungsgrad in Achtel und Wolkenuntergrenze
Mo, 20.01. 6:00 8(810m)
Mo, 20.01. 5:50 8(810m)
Mo, 20.01. 5:40 8(840m)
Mo, 20.01. 5:30 8(840m)
Mo, 20.01. 5:20 8(840m)
Mo, 20.01. 5:10 8(840m)
Mo, 20.01. 5:00 8(840m)
Mo, 20.01. 4:30 8(870m)
Mo, 20.01. 4:00 8(930m)
Mo, 20.01. 3:30 8(900m)
Mo, 20.01. 3:00 8(900m)
Ortszeit Luftdruck NN (hPa) Tendenz (hPa in 3 Std.)
Mo, 20.01. 1:00 1043 + 1,7
So, 19.01. 19:00 1039 + 2,8
So, 19.01. 13:00 1035 + 1,9
So, 19.01. 7:00 1030 + 1,9
So, 19.01. 1:00 1027 + 1,3
Sa, 18.01. 19:00 1025 + 1,0
Sa, 18.01. 13:00 1024 - 0,1
Sa, 18.01. 7:00 1022 + 1,8
Ortszeit Luftdruck NN (hPa) Tendenz (hPa in 3 Std.)
Mo, 20.01. 6:00 1045 + 1,4
Mo, 20.01. 5:50 1045 keine Meldung
Mo, 20.01. 5:40 1045 keine Meldung
Mo, 20.01. 5:30 1045 + 1,0
Mo, 20.01. 5:20 1045 keine Meldung
Mo, 20.01. 5:10 1045 keine Meldung
Mo, 20.01. 5:00 1045 + 1,1
Mo, 20.01. 4:30 1044 + 1,1
Mo, 20.01. 4:00 1044 + 0,8
Mo, 20.01. 3:30 1044 + 1,1
Mo, 20.01. 3:00 1044 + 0,9
Ortszeit Schneehöhe (cm)
Mo, 20.01. 1:00 0
So, 19.01. 19:00 0
So, 19.01. 13:00 0
So, 19.01. 7:00 0
So, 19.01. 1:00 0
Sa, 18.01. 19:00 0
Sa, 18.01. 13:00 0
Sa, 18.01. 7:00 0
Ortszeit Schneehöhe (cm)
Mo, 20.01. 6:00 0
Mo, 20.01. 5:50 0
Mo, 20.01. 5:40 0
Mo, 20.01. 5:30 0
Mo, 20.01. 5:20 0
Mo, 20.01. 5:10 0
Mo, 20.01. 5:00 0
Mo, 20.01. 4:30 0
Mo, 20.01. 4:00 0
Mo, 20.01. 3:30 0
Mo, 20.01. 3:00 0
Link zu dieser Seite / Seite empfehlen

Das Wetter in ...